COSMOS 2251 DEB, 34680

Orbit data source: Space-Track

COSMOS 2251 DEB, 34680 is space debris in LEO originally from a launch on Wed, 16 Jun 1993 UTC launched from the Plesetsk Missile And Space Complex (PKMTR). The debris from Iridium 33, an American commercial communications satellite, has been tracked extensively since its accidental collision with the defunct Russian satellite Cosmos 2251 in 2009. This event, occurring at high speed in low Earth orbit (LEO), generated thousands of pieces of space debris, significantly increasing the risk of further collisions. The Iridium 33 debris cloud has impacted space traffic management and orbital debris mitigation strategies, making it a subject of ongoing study in space situational awareness.

Loading next visibility...
Identifier
34680, 1993-036YA
Orbit
LEO
Country
Flag of CISCIS
Related business
Manufacturer
Unknown
Mission
Spacecraft
Bus & Motor
Unknown
Mass
Unknown
Launch date (UTC)
1993-06-16 (33 years ago)
Launch vehicle
Unknown
Launch site
Plesetsk Missile And Space Complex (PKMTR)
Object type
Payload
Rocket body
Debris
Shape & HBR
Unknown shape, 0.1 m
Radar Cross Section
Medium (>0.1 m² and <1 m²)

Expand to show TLE details & history
Last TLE update: 13 hours ago

TLE from 13 hours ago
0 COSMOS 2251 DEB
1 34680U 93036YA  26263.39098942  .00001792  00000-0  35583-3 0  9991
2 34680  74.0433 310.9292 0008416 316.6534  56.2052 14.62928496924441
Epoch: 2026-09-20T09:23Z
TLE epoch observation values (Epoch: 2026-09-20T09:23:01.485Z)
Latitude
12.39734°
Longitude
174.47121°
Altitude
682.315 km
Speed
7.518 km/s
True Right ascension
20h 58m 03s
True Declination
12° 19' 29"
Sunlit
Object was in full shadow at epoch
Visualization orbit readout
Latitude
Unknown
Longitude
Unknown
Altitude
Unknown
Speed
Unknown
Apparent Right ascension
Unknown
Apparent Declination
Unknown
Sunlit
N/A
Visualization observer readout
Local Sidereal Time
15:01:32
Azimuth
Unknown
Elevation
Unknown
Doppler factor
Unknown
Orbital elements
Apogee altitude
687.269 km
Perigee altitude
675.386 km
Semi-major axis
7,059.465 km
Eccentricity
0.00084
Inclination
74.0433°
RAAN
310.9292°
Arg. of periapsis
316.6534°
True anomaly
56.28539°
Mean anomaly
56.2052°
Eccentric anomaly
56.24529°
Mean motion
3.65919 °/min
Orbital period
98.38 mins
BSTAR
0.00035583

Documentation

Showing up to 5 results
|